Regional Weather Roundup
Issued by NWS

Home | Current Version | Previous Version | Text Only | Print | Product List | Glossary On
Versions: 1 2 3 4 5 6 7 8 9 10 11 12 13 14 15 16 17 18 19 20 21 22 23 24 25 26 27
000
ASUS42 KKEY 210010
RWRKEY

FLORIDA REGIONAL WEATHER ROUNDUP FOR THE FLORIDA KEYS
NATIONAL WEATHER SERVICE KEY WEST FLORIDA
700 PM EST FRI JAN 20 2017

...SOUTH FLORIDA AND THE KEYS...

CITY           SKY/WX    TMP DP  RH WIND       PRES   REMARKS
FORT MYERS     CLEAR     73  67  81 S3        29.96S
SW REGIONAL AP CLEAR     71  64  78 SW5       29.97S
NAPLES         CLEAR     72  66  81 S5        29.97R
MIAMI          MOCLDY    78  63  59 S7        29.98R
WEST KENDALL   PTCLDY    74  62  66 S5        29.98R
HOMESTEAD      CLEAR     71  68  91 CALM      29.97S
MARATHON       CLEAR     76  64  66 CALM      29.97S
BOCA CHICA NAS CLEAR     74  64  71 CALM      29.97S
KEY WEST INTL  CLEAR     77  64  64 S5        29.97

...INTERNATIONAL WEATHER...

CITY           SKY/WX    TMP DP  RH WIND       PRES   REMARKS
NASSAU BAHAMAS PTCLDY    72  68  88 CALM      30.01R
CANCUN MEXICO  PTCLDY    79  72  78 SE13      29.89R
COZUMEL MEXICO PTCLDY    77  72  83 S3        29.87R

ADJACENT COASTAL WATERS...

STATION/POSITION TIME  SKY/WX   TEMP    WIND        PRES    WAVE
                                AIR SEA DIR/SP/G            HT/PER
                 (UTC)          (F)     (DEG/KT/KT) (MB)    (FT/S)
PULASKI SHOAL LI 0000            76     150/  8/  8 1014.7R
SAND KEY         2350            76     190/  5/  6 1015.3S
LONG KEY         2300            75 75  200/  5/  6 1015.2R
MOLASSES REEF    NOT AVBL
FOWEY ROCKS      2300            76 76  200/ 13/ 14 1015.6R

$$




USA.gov is the U.S. government's official web portal to all federal, state and local government web resources and services.